N4FLB Weather Reports


Display with metric or nautical units.
time (UTC)temp
F
wind
direction
speed
MPH
gust
MPH
rain 1hr
in
rain 24hr
in
rain mn
in
humidity
%
barometer
mb
20260502163604 66 331 5.0 13.0 0.00 0.57 0.32 63 1015.9
20260502162704 65 349 5.0 13.0 0.00 0.57 0.32 62 1015.9
20260502161804 65 338 5.0 13.0 0.00 0.57 0.32 67 1016.1
20260502160904 65 347 3.0 9.0 0.00 0.57 0.32 67 1016.0
20260502151825 62 345 4.0 11.0 0.00 0.57 0.32 77 1016.1
20260502150904 62 347 4.0 9.0 0.00 0.57 0.32 76 1016.0
20260502123603 56 332 2.0 7.0 0.00 0.57 0.32 100 1014.5
20260502122703 56 344 1.0 4.0 0.00 0.57 0.32 100 1014.5
20260502121803 56 331 1.0 4.0 0.00 0.57 0.32 100 1014.4
20260502120905 56 322 3.0 8.0 0.00 0.57 0.32 100 1014.5
20260502115405 56 11 1.0 5.0 0.01 0.57 0.32 100 1013.7
20260502114505 56 348 1.0 4.0 0.01 0.57 0.32 100 1013.7
20260502113605 56 17 0.0 3.0 0.01 0.57 0.32 100 1013.9
20260502112705 56 45 0.0 3.0 0.01 0.57 0.32 100 1013.8
20260502111805 56 296 0.0 3.0 0.02 0.58 0.32 100 1014.4
20260502110926 56 308 1.0 4.0 0.02 0.58 0.32 100 1014.4
20260502110005 55 324 2.0 6.0 0.03 0.57 0.31 100 1013.8
20260502105405 55 42 2.0 4.0 0.04 0.57 0.31 100 1013.0
20260502104505 56 5 2.0 4.0 0.04 0.57 0.31 100 1012.8
20260502103605 55 344 1.0 4.0 0.05 0.57 0.31 100 1013.7
20260502102704 55 322 3.0 8.0 0.05 0.57 0.31 100 1014.5
20260502100925 55 338 3.0 6.0 0.06 0.56 0.30 100 1013.6
20260502090904 54 285 1.0 2.0 0.01 0.50 0.24 99 1015.7
20260502070904 54 0 0.0 0.0 0.07 0.46 0.18 99 1015.1
20260502070025 54 256 0.0 2.0 0.09 0.46 0.18 99 1014.9
20260502065425 55 263 0.0 2.0 0.10 0.46 0.18 99 1015.0
20260502064504 55 249 0.0 2.0 0.10 0.45 0.17 99 1015.1
20260502063604 55 229 0.0 3.0 0.10 0.44 0.16 99 1015.0
20260502062704 55 295 0.0 1.0 0.10 0.42 0.14 99 1015.0
20260502061804 55 255 0.0 2.0 0.10 0.40 0.12 99 1014.9
20260502060904 55 302 0.0 2.0 0.10 0.39 0.11 99 1015.1
20260502060004 55 318 0.0 1.0 0.09 0.37 0.09 99 1015.1
20260502055404 55 0 0.0 0.0 0.08 0.36 0.08 99 1014.8
20260502054525 55 0 0.0 0.0 0.08 0.35 0.07 99 1014.8
20260502053604 55 318 0.0 1.0 0.07 0.34 0.06 98 1015.0
20260502052704 55 275 0.0 2.0 0.06 0.32 0.04 98 1015.3
20260502051825 55 306 0.0 1.0 0.04 0.30 0.02 98 1015.4
20260502050904 55 261 1.0 2.0 0.04 0.29 0.01 98 1015.2
20260502050004 55 272 0.0 1.0 0.04 0.28 0.00 98 1015.2
20260502045403 55 257 0.0 2.0 0.05 0.28 0.28 98 1015.1
20260502044504 55 209 0.0 2.0 0.05 0.27 0.27 98 1015.3
20260502043603 55 267 1.0 3.0 0.05 0.27 0.27 97 1015.1
20260502042704 55 126 0.0 2.0 0.04 0.26 0.26 97 1015.1
20260502041803 55 0 0.0 0.0 0.04 0.26 0.26 97 1014.9
20260502040904 55 105 0.0 1.0 0.03 0.25 0.25 97 1014.8
20260502040004 55 105 0.0 1.0 0.03 0.24 0.24 97 1014.9
20260502035403 55 105 0.0 1.0 0.02 0.23 0.23 97 1014.8
20260502034503 55 131 0.0 3.0 0.01 0.22 0.22 96 1015.0
20260502033603 55 147 1.0 3.0 0.02 0.22 0.22 96 1015.1
20260502032703 56 141 1.0 3.0 0.02 0.22 0.22 97 1015.2
20260502031803 56 138 0.0 1.0 0.03 0.22 0.22 98 1015.2
20260502030903 56 0 0.0 0.0 0.05 0.22 0.22 97 1015.4
20260502030005 56 0 0.0 0.0 0.05 0.21 0.21 97 1015.5
20260502025405 56 144 0.0 1.0 0.05 0.21 0.21 97 1015.5
20260502024505 56 148 0.0 1.0 0.07 0.21 0.21 96 1015.5
20260502023605 56 148 0.0 1.0 0.07 0.20 0.20 96 1015.7
20260502022726 56 0 0.0 0.0 0.08 0.20 0.20 95 1015.8
20260502021826 56 0 0.0 0.0 0.09 0.19 0.19 94 1016.0
20260502020905 56 125 0.0 1.0 0.08 0.17 0.17 93 1016.1
20260502020005 56 53 0.0 3.0 0.08 0.16 0.16 90 1015.8
20260502015426 57 53 0.0 3.0 0.09 0.16 0.16 92 1015.8
20260502014505 57 62 1.0 3.0 0.08 0.14 0.14 92 1015.7
20260502013605 58 55 1.0 3.0 0.07 0.13 0.13 92 1015.5
20260502012704 59 36 0.0 3.0 0.07 0.12 0.12 96 1015.4
20260502011805 59 280 0.0 1.0 0.05 0.10 0.10 96 1015.5
20260502010926 59 280 0.0 1.0 0.05 0.09 0.09 96 1015.7
20260502010026 59 280 0.0 1.0 0.04 0.08 0.08 96 1015.8
20260502005404 59 280 0.0 2.0 0.03 0.07 0.07 96 1015.7
20260502004505 59 277 0.0 3.0 0.03 0.06 0.06 95 1015.7
20260502003626 60 313 0.0 2.0 0.03 0.06 0.06 95 1015.6
20260502002704 60 297 0.0 2.0 0.02 0.05 0.05 95 1015.5
20260502001804 60 291 1.0 2.0 0.02 0.05 0.05 94 1015.5
20260502000925 60 307 1.0 2.0 0.01 0.04 0.04 94 1015.0
20260502000004 60 342 0.0 2.0 0.01 0.04 0.04 93 1014.7
20260501235404 60 291 1.0 2.0 0.01 0.04 0.04 92 1014.5
20260501234505 60 211 0.0 2.0 0.00 0.03 0.03 91 1014.5
20260501233604 61 180 0.0 1.0 0.00 0.03 0.03 89 1014.2
20260501232725 61 189 0.0 2.0 0.00 0.03 0.03 87 1014.3
20260501231825 62 345 1.0 3.0 0.00 0.03 0.03 85 1014.2
20260501230925 62 17 1.0 4.0 0.00 0.03 0.03 84 1014.0
20260501230025 62 5 2.0 5.0 0.00 0.03 0.03 85 1014.0
20260501225404 62 7 2.0 6.0 0.00 0.03 0.03 87 1013.9
20260501224525 62 15 2.0 6.0 0.00 0.03 0.03 86 1013.8
20260501223604 62 355 2.0 5.0 0.00 0.03 0.03 87 1013.7
20260501222704 62 11 1.0 5.0 0.00 0.03 0.03 86 1013.8
20260501221804 63 9 1.0 3.0 0.00 0.03 0.03 86 1014.0
20260501220904 63 342 2.0 4.0 0.00 0.03 0.03 85 1014.1
20260501220004 63 28 2.0 5.0 0.00 0.03 0.03 83 1013.8
20260501215404 63 46 2.0 5.0 0.00 0.03 0.03 82 1013.5
20260501214525 63 19 2.0 5.0 0.00 0.03 0.03 82 1013.7
20260501213604 64 342 2.0 8.0 0.00 0.03 0.03 85 1013.9
20260501212704 64 342 3.0 9.0 0.00 0.03 0.03 85 1013.9
20260501211804 64 330 3.0 10.0 0.00 0.03 0.03 87 1014.0
20260501210904 64 352 3.0 8.0 0.00 0.03 0.03 86 1014.0
20260501210025 64 358 2.0 7.0 0.00 0.03 0.03 86 1014.1
20260501205425 64 4 2.0 6.0 0.00 0.03 0.03 85 1014.0
20260501204504 64 7 4.0 8.0 0.00 0.03 0.03 83 1014.5
20260501203625 64 332 3.0 10.0 0.00 0.03 0.03 83 1014.7
20260501202724 64 332 4.0 9.0 0.00 0.03 0.03 80 1015.1
20260501201825 64 344 3.0 8.0 0.00 0.03 0.03 79 1015.2
20260501200903 64 337 2.0 6.0 0.00 0.03 0.03 78 1015.2
20260501200004 64 319 2.0 5.0 0.00 0.03 0.03 80 1015.3
20260501195403 65 328 2.0 5.0 0.00 0.03 0.03 78 1015.4
20260501194504 65 313 2.0 6.0 0.00 0.03 0.03 78 1015.4
20260501193603 65 328 2.0 4.0 0.00 0.03 0.03 76 1015.5
20260501192703 65 322 3.0 6.0 0.00 0.03 0.03 75 1015.5
20260501191803 65 339 3.0 9.0 0.00 0.03 0.03 73 1015.2
20260501190903 65 350 2.0 5.0 0.00 0.03 0.03 75 1014.9
20260501190003 65 320 1.0 3.0 0.00 0.03 0.03 74 1015.4
20260501185403 65 360 1.0 3.0 0.00 0.03 0.03 74 1015.5
20260501184504 65 324 2.0 4.0 0.00 0.03 0.03 75 1015.8
20260501183604 65 330 2.0 4.0 0.00 0.03 0.03 74 1016.0
20260501182703 65 312 1.0 3.0 0.00 0.03 0.03 73 1015.8
20260501181804 65 328 2.0 5.0 0.00 0.03 0.03 73 1016.2
20260501180903 64 328 2.0 5.0 0.00 0.03 0.03 72 1016.2
20260501180004 64 313 3.0 6.0 0.00 0.03 0.03 69 1016.4
20260501175426 64 309 3.0 6.0 0.00 0.03 0.03 71 1016.5
20260501174504 64 340 3.0 6.0 0.00 0.03 0.03 74 1016.3
20260501173605 64 329 2.0 6.0 0.00 0.03 0.03 79 1016.1
20260501172705 64 330 2.0 6.0 0.00 0.03 0.03 79 1016.2